Regional Weather Roundup
Issued by NWS

Home | Current Version | Previous Version | Text Only | Print | Product List | Glossary On
Versions: 1 2 3 4 5 6 7 8 9 10 11 12 13 14 15 16 17 18 19 20 21 22 23 24 25 26 27 28 29 30 31 32 33 34 35 36 37 38 39 40 41 42 43 44 45 46 47 48 49 50
000
ASHW40 PHFO 071143
RWRHI

WEATHER ROUNDUP FOR HAWAII
NATIONAL WEATHER SERVICE HONOLULU HI
100 AM HST SUN FEB 07 2016

THIS IS AN AUTOMATED REPORT THAT HAS NOT BEEN QUALITY CONTROLLED.

NOTE..."FAIR" INDICATES FEW OR NO CLOUDS BELOW 12,000 FEET WITH NO
SIGNIFICANT WEATHER AND/OR OBSTRUCTIONS TO VISIBILITY.

* - THESE SITES REPORT LIMITED FIELDS

HIZ001>004-071200-
KAUAI-NIIHAU-

CITY           SKY/WX    TMP DP  RH WIND       PRES   REMARKS
LIHUE APT      CLEAR     65  58  78 N15G23    30.03F
PORT ALLEN*      N/A     63 N/A N/A N5          N/A
POIPU*           N/A     68 N/A N/A N10G22      N/A
PRINCEVILLE*     N/A     68 N/A N/A N8G15       N/A
KOKOLE POINT*  NOT AVBL
MOLOAA DAIRY*    N/A     66  57  72 NW3G15      N/A
WAIMEA HTS*      N/A     66  54  63 NW3G10      N/A
PUU OPAE*        N/A     57  52  82 VRB12G22    N/A
PUU LUA*       NOT AVBL
MAKAHA RIDGE*    N/A     59  55  88 N6G17       N/A
$$

HIZ005>011-071200-
OAHU-

CITY           SKY/WX    TMP DP  RH WIND       PRES   REMARKS
HONOLULU       PTCLDY    71  61  70 N12       29.99R
KALAELOA       CLEAR     68  59  73 N8G18     30.00S
KANEOHE MCB    MOCLDY    70  63  78 N17G28    29.98S
WHEELER FIELD  MOCLDY    64  63  94 N8        29.99F
BELLOWS*         N/A    N/A N/A N/A S3G13       N/A
KAHUKU*          N/A    N/A N/A N/A VRB5G13     N/A
WHEELER*         N/A    N/A N/A N/A N7          N/A
WAIANAE HARBOR   N/A    N/A N/A N/A N7G21       N/A
DILLINGHAM*      N/A     66  63  88 MISG        N/A
KAHUKU TRN*      N/A     68  59  73 N6G16       N/A
KAWAILOA*        N/A     63  59  88 N6G15       N/A
KII*             N/A     72  61  68 N13G21      N/A
MAKUA RANGE*     N/A     66  61  82 E10G21      N/A
OAHU FOREST NW   N/A     59  59 100 CALM        N/A
SCHOFIELD BRK*   N/A     63  59  88 MISG        N/A
SCHOFIELD S*   NOT AVBL
WAIANAE VLY*     N/A     63  57  82 NW12G20     N/A
KUAOKALA*        N/A     66  59  77 N23G32      N/A
HONOULIUULI*   NOT AVBL
MOKUOLOE IS*   NOT AVBL
PALEHUA*         N/A     61  57  88 VRB7G18     N/A
WAIAWA PHB*    NOT AVBL
$$

HIZ012>013-071200-
MOLOKAI-

CITY           SKY/WX    TMP DP  RH WIND       PRES   REMARKS
MOLOKAI AIRPT  CLOUDY    68  61  78 N17G26    29.99F
KALAUPAPA      NOT AVBL
MAKAPULAPAI*     N/A     70  63  78 VRB10G21    N/A
MOLOKAI 1*       N/A     66  64  94 VRB12G23    N/A
PUU ALII*        N/A     55  55 100 SE2G13      N/A
$$

HIZ016-071200-
KAHOOLAWE-

CITY           SKY/WX    TMP DP  RH WIND       PRES   REMARKS
KAHOOLAWE*       N/A     64 N/A N/A NE1         N/A
HAKIOAWA*        N/A     66  66  99 MISG      30.37F
HONOKANAIA*      N/A     70  67  90 N8        29.91F
KANELOA*         N/A     66  64  94 VRB12G20  30.02F
KEALIALALO*      N/A     64  64 100 NE20G38   29.91F
LUA MAKIKA*    NOT AVBL
$$

HIZ014>015-071200-
LANAI-

CITY           SKY/WX    TMP DP  RH WIND       PRES   REMARKS
LANAI CITY     CLOUDY    64  63  94 N13G21    30.01R
LANAI 1*         N/A    N/A N/A N/A VRB20       N/A
$$

HIZ017>028-071200-
MAUI-

CITY           SKY/WX    TMP DP  RH WIND       PRES   REMARKS
KAHULUI        CLOUDY    69  67  93 MISG      29.99F FOG
KAPALUA-W MAUI NOT AVBL
HANA AIRPORT   LGT RAIN  68  32  26 W6        30.00F VSB 1/2
HANA*            N/A     68 N/A N/A NW13G21     N/A
HALEAKALA SUMM   N/A     41  41 100 W5G33       N/A
MAALAEA BAY*     N/A     68 N/A N/A NE13G21     N/A
HALEAKALA*     NOT AVBL
KAUPO GAP*       N/A     57  55  94 N1G8        N/A
KULA 1*          N/A     50  49  98 E3G12       N/A
$$

HIZ023>026-071200-
BIG ISLAND OF HAWAII COAST AND LOWER SLOPES-

CITY           SKY/WX    TMP DP  RH WIND       PRES   REMARKS
KAILUA KONA    NOT AVBL
HILO           CLOUDY    74  68  81 N14G23    29.95F
HONOKAA*         N/A     66 N/A N/A VRB1        N/A
KAWAIHAE MWT*    N/A     72 N/A N/A NE1         N/A
KAWAIHAE*        N/A     72 N/A N/A SE7       29.93F
SOUTH POINT*     N/A     68 N/A N/A NW7         N/A
UPOLU AIRPORT*   N/A    N/A N/A N/A SE10        N/A
KAMUELA*         N/A     61  61 100 S3        30.05F
HAKALAU*         N/A     45  41  87 W3G9        N/A
KALOKO-HONOKO*   N/A     72  66  83 CALM      29.93F
PALI 2*          N/A     59  59 100 N3          N/A
KEALAKOMO*       N/A     72  63  73 NW3         N/A
KAUPULEHU*       N/A     66  64  94 SE6         N/A
KAPAPALA*        N/A     59  58  96 NW6         N/A
LOWER KAHUKU*    N/A     57 -42   1 VRB3        N/A
PUHE CS*         N/A     70  66  88 SE1         N/A
PUHO CS*         N/A     68  64  87 NE3         N/A
PTA KEAMUKU*     N/A     59  57  94 CALM        N/A
WAIKOLOA*        N/A     66  64  94 E7          N/A
$$

HIZ027>028-071200-
BIG ISLAND OF HAWAII INTERIOR AND SUMMMITS-

CITY           SKY/WX    TMP DP  RH WIND       PRES   REMARKS
BRADSHAW FIELD LGT RAIN  54  54 100 SW7       30.24F VSB 1/8
MK VISITOR CEN   N/A     43  39  87 NW8         N/A
MAUNA KEA*       N/A     32 -17  11 NW47G63     N/A  WCI  15
MAUNA LOA*       N/A    N/A N/A N/A MISG        N/A
MAUNA LOA 1*   NOT AVBL
PTA KIPUKA*      N/A     54  54 100 NW2         N/A
PTA RANGE 17*    N/A     50  48  93 W3          N/A
PTA WEST*        N/A     55  55 100 SE2         N/A
NENE CABIN*      N/A     43  43 100 N3          N/A
AHUMOA*          N/A     52  52 100 SE1         N/A
PTA PORTABLE*  NOT AVBL
PUU MALI*        N/A     52  52 100 W9          N/A
$$

HIC003-071200-
NORTHWEST ISLANDS-

CITY           SKY/WX    TMP DP  RH WIND       PRES   REMARKS
MIDWAY ISLAND  CLEAR     55  46  71 E3        30.37S
MIDWAY NOS*      N/A     61 N/A N/A MISG      30.35S
FRENCH FRIGATE NOT AVBL
$$

PHZ110>124-180-071200-
BUOY REPORTS

STATION/POSITION TIME  TEMP    WIND        PRES    WAVE   SWELL
                       AIR SEA DIR/SP/G            HT/PER HT/DIR
                 (UTC) (F)     (DEG/KT/KT) (MB)    (FT/S) (FT/D)
BUOY 51001       1100   67 76  340/ 19/ 27 1020.0R
BUOY 51101       1050   67 76  330/ 25/ 29 1019.5R  11/ 9   8/320
BUOY 51100       NOT AVBL
BUOY 51002       1050   76 78   50/  6/  8 1013.9F   8/11   8/ 60
BUOY 51003       1050   75 78   20/ 23/ 29 1015.4R   7/11   3/ 40
BUOY 51004       1050   75 77   80/  8/ 10 1014.2S   7/10   7/100
BARBERS PT BUOY  NOT AVBL
WAIMEA BAY BUOY  1104      78                N/A     8/ 8   3/330
KAILUA BAY BUOY  1111      77                N/A     8/ 7   2/350
LANAI BUOY       NOT AVBL
BARBERS PT 2     1103      78                N/A     6/ 7   2/300
PAUWELA MAUI     1107      76                N/A     6/11   3/350
HILO             NOT AVBL
KANEOHE BAY BUOY 1106      77                N/A     6/ 7   2/350
HANALEI KAUAI    1101      77                N/A    11/ 8   5/310
KAHULUI HARBOR   NOT AVBL
HONOLULU HARBOR  1100   71 77  340/  6/ 10 1016.0R
KILO NALU        NOT AVBL
HILO HARBOR      1100   73 76  350/ 18/ 20 1013.7F
MOKUOLOE         1000   73 78  340/ 19/ 21 1015.8F
NAWILIWILI       1100   67 79  340/  6/  9 1016.9S
WHOTS BUOY       NOT AVBL
BUOY 51028       NOT AVBL
$$

......................KEY........................................
  SKY/WX - SKY CONDITIONS/PRESENT WEATHER
  TMP    - TEMPERATURE IN FAHRENHEIT
  DWPT   - DEWPOINT IN FAHRENHEIT
  RH     - RELATIVE HUMIDITY IN PERCENT
  WIND   - DIRECTION AND SPEED /MPH FOR ISLANDS...KTS FOR BUOYS/
  PRES   - MEAN SEA LEVEL PRESSURE IN INCHES OF HG
  VSB    - VISIBILITY IN MILES
  HX     - HEAT INDEX
  WCI    - WIND CHILL INDEX
  VRB    - VARIABLE WIND DIRECTION
  N/A    - NOT AVAILABLE



USA.gov is the U.S. government's official web portal to all federal, state and local government web resources and services.